GEFSNGP_500_meanwind_264.txt.gz
Wind_Speed
36 35 34 34 33 34 34 33 32 30 28 25 24 23 21 21 20 18 18 17 16 16 16 16 16 16 16 16 16 17 16 15 15 15 14 15 14 14 14 14 14 15 15 15
38 37 36 36 35 34 34 34 33 31 30 27 26 26 24 23 21 20 19 19 19 19 19 19 19 18 18 18 18 18 17 17 17 16 16 16 16 16 16 17 17 17 16 16
39 38 37 38 36 35 35 35 34 33 31 30 29 28 27 26 25 23 23 22 21 22 22 22 21 20 19 19 19 19 19 19 19 18 18 17 17 17 18 18 18 18 17 17
39 39 40 39 37 36 36 36 35 34 33 31 30 29 29 28 28 27 25 24 23 23 24 24 23 23 22 21 21 22 22 21 21 20 19 19 19 19 20 20 20 20 20 19
40 41 41 41 39 38 37 36 35 35 33 32 32 31 30 29 29 29 28 26 25 25 25 25 25 25 24 23 24 24 24 24 23 22 22 22 21 21 21 22 22 22 22 22
41 42 41 40 39 39 39 39 37 36 35 33 32 32 31 31 31 30 29 29 28 27 27 27 27 27 26 26 26 26 25 26 25 25 24 24 24 24 23 24 24 23 24 23
40 41 41 40 40 40 41 39 37 37 35 34 33 33 33 33 32 32 31 30 29 29 29 28 28 28 28 28 29 28 27 27 27 27 27 27 26 26 26 26 25 25 25 24
40 41 41 39 38 39 39 39 38 38 36 35 34 34 34 34 33 33 32 32 31 31 31 31 30 30 30 29 30 30 29 28 29 29 29 29 29 29 28 28 27 26 25 25
42 41 39 39 38 38 38 38 38 38 37 38 37 36 35 35 34 34 34 34 33 33 33 33 33 32 32 31 31 31 31 31 30 30 30 30 30 30 30 29 28 27 27 27
41 41 40 39 39 39 38 37 37 37 38 38 38 38 37 37 36 36 35 35 35 35 35 35 35 34 34 34 33 33 33 33 32 32 33 33 32 32 31 30 30 29 29 29
40 39 39 38 38 38 38 38 38 37 37 38 38 38 37 36 37 37 37 36 36 36 36 36 36 36 35 35 34 34 34 33 33 33 34 33 32 32 32 31 31 31 30 30
40 39 38 37 37 37 38 39 38 37 37 38 38 38 37 38 38 37 37 36 36 36 37 37 37 36 36 36 36 35 34 35 35 35 34 33 33 33 33 33 32 31 31 30
39 39 39 37 37 38 38 38 38 37 38 39 39 39 39 38 38 38 38 38 38 37 37 37 37 37 37 37 37 36 35 35 35 35 35 34 34 33 33 33 32 32 31 31
38 39 38 37 36 37 38 39 38 38 38 39 40 40 40 39 39 38 39 39 38 38 37 37 37 38 37 38 38 37 36 36 36 35 35 34 34 34 33 33 33 33 32 32
36 37 36 35 35 35 35 36 36 36 37 37 38 39 39 38 37 37 38 39 39 38 38 37 37 36 36 37 37 36 36 36 36 36 35 34 34 35 35 35 35 34 33 33
34 34 34 34 33 33 34 34 35 35 34 35 36 37 37 36 36 36 37 38 38 38 37 37 37 37 36 36 35 35 35 35 35 34 33 34 35 36 36 35 35 35 34 34
31 31 31 32 32 32 32 32 33 33 33 33 34 35 35 35 35 35 36 37 38 38 38 38 37 37 36 35 35 35 35 35 34 34 34 34 34 34 35 35 35 36 35 35
29 29 29 31 31 31 32 32 32 32 33 33 34 34 34 34 34 35 35 35 35 35 36 36 36 37 35 34 34 33 34 33 33 34 34 34 34 34 34 35 35 35 35 36
28 29 29 30 30 30 30 31 32 32 32 32 33 33 34 34 34 34 34 33 33 33 34 34 34 34 34 34 34 33 33 34 34 34 34 34 34 34 34 34 35 35 35 36
25 26 27 27 28 29 30 31 32 32 32 32 32 32 32 32 32 32 33 33 32 32 32 32 33 33 32 32 31 32 32 33 33 33 33 33 32 33 34 34 34 34 34 35
23 24 25 25 25 26 27 27 29 29 30 30 30 30 30 30 30 30 30 30 31 31 31 31 31 30 30 30 30 30 31 31 31 32 32 32 32 32 32 32 33 33 34 34
20 21 21 22 22 23 24 25 26 27 28 27 28 29 29 29 29 29 30 29 29 29 30 30 30 29 29 29 29 29 30 30 31 31 31 30 30 31 30 30 31 32 33 34
19 20 20 19 19 20 21 23 24 25 25 25 25 27 28 27 27 27 27 28 28 28 28 28 28 28 28 28 28 28 28 28 28 29 29 29 29 29 30 30 30 32 32 32
17 18 19 19 19 19 20 22 22 22 23 23 23 24 25 25 24 25 25 26 26 26 26 26 26 26 26 27 27 26 26 26 26 27 27 28 29 29 29 29 30 31 31 32
16 17 18 18 18 18 19 20 21 21 21 21 21 22 22 22 22 23 23 23 23 24 24 24 24 24 25 26 26 26 26 26 26 26 26 27 27 28 29 29 30 30 30 31
15 15 15 16 17 17 17 18 18 18 19 19 20 21 21 20 20 20 20 21 22 23 23 23 23 24 24 25 25 25 26 26 26 26 26 26 27 27 28 28 29 30 30 31
13 13 14 15 15 15 15 14 15 16 17 18 18 18 18 18 19 19 20 20 21 22 22 23 23 24 24 25 25 26 26 26 26 26 26 26 26 26 26 26 26 26 27 28

GEFSNGP_500_meanwind_270.txt.gz
Wind_Speed
37 35 34 34 33 33 32 30 28 27 26 25 24 23 22 22 21 21 20 20 19 19 18 18 17 17 17 17 17 17 17 16 16 16 16 16 15 15 15 15 15 15 14 14
38 37 36 36 35 34 34 33 31 30 29 27 26 26 25 24 23 23 22 22 22 22 21 20 20 19 19 19 19 19 18 18 18 18 17 17 16 16 16 16 16 17 16 15
38 38 37 39 37 36 36 35 33 32 31 30 29 28 27 26 25 25 25 24 24 24 23 23 22 22 21 21 21 21 21 20 20 19 19 19 18 18 18 18 18 18 17 17
37 37 39 38 36 37 37 36 35 34 33 32 30 29 29 28 28 27 27 27 26 27 27 26 25 24 24 23 23 23 23 23 22 22 21 21 21 20 20 20 19 19 19 19
38 38 39 39 39 38 38 38 36 35 34 33 32 31 30 30 29 29 29 29 29 29 28 28 27 26 25 25 25 25 25 25 24 23 23 23 22 22 22 22 21 20 20 20
40 39 39 38 39 38 38 39 38 37 36 35 33 33 32 31 31 30 30 30 29 29 29 28 28 27 27 27 27 27 27 26 26 26 25 25 25 24 23 23 22 23 23 23
40 40 41 39 39 38 38 38 38 38 36 35 35 34 33 32 32 31 30 30 30 29 29 29 29 29 29 29 29 28 28 28 28 28 27 27 27 27 26 25 25 25 25 25
40 40 40 40 39 39 38 38 38 38 37 36 36 35 35 34 33 32 31 31 31 31 31 31 31 31 30 30 30 30 29 29 29 29 29 29 28 28 28 28 28 28 27 27
40 40 40 41 40 38 37 38 38 38 38 37 36 35 35 35 35 34 34 33 34 33 33 32 32 32 32 32 32 31 31 31 31 31 31 31 30 30 30 30 30 30 29 29
40 40 40 40 39 38 37 38 39 38 37 38 37 37 37 37 36 36 36 36 35 35 34 34 33 33 33 33 33 32 32 32 32 32 33 33 32 32 32 31 30 31 31 30
40 40 40 40 39 38 37 38 39 39 38 38 39 39 38 38 38 38 37 37 36 35 35 35 34 34 34 34 33 32 33 33 33 34 34 33 33 33 33 32 32 33 32 31
40 40 40 40 39 38 37 37 38 39 39 38 38 38 37 37 37 38 38 37 36 36 36 36 36 35 35 35 34 33 33 34 34 34 34 34 34 34 34 34 33 33 33 33
39 39 39 39 39 38 38 37 37 38 38 38 37 37 37 36 35 35 35 36 35 35 35 35 35 35 35 35 34 34 34 34 34 34 35 35 35 34 34 34 34 34 34 34
38 38 38 38 38 37 37 37 38 38 38 38 37 36 36 35 34 34 34 34 34 34 35 35 35 34 34 35 34 34 35 34 34 34 34 34 34 34 35 35 34 35 35 35
34 35 35 36 36 36 37 37 37 37 37 37 36 36 35 33 33 32 33 33 33 33 33 34 34 35 35 36 36 35 35 35 34 34 34 34 34 34 34 35 35 35 34 34
31 32 33 34 34 35 35 35 35 35 35 35 34 34 33 33 33 33 33 33 33 33 33 33 33 34 35 35 35 35 35 34 34 34 33 33 34 33 33 33 34 34 35 34
31 32 33 33 33 33 33 34 34 34 34 33 33 34 34 34 34 33 33 33 33 33 33 33 33 34 34 34 34 34 34 34 34 34 33 33 33 34 34 35 34 34 34 33
29 30 31 31 32 31 32 32 32 32 32 31 31 31 33 34 33 32 32 32 33 33 33 32 33 33 34 34 34 34 34 34 33 34 34 34 34 34 34 34 35 35 34 33
26 27 28 28 29 29 29 29 29 29 30 29 30 30 31 32 32 32 32 32 32 32 32 32 32 32 33 34 34 33 33 33 34 34 34 34 34 35 35 35 34 33 33 33
22 23 25 26 27 27 27 27 27 27 28 29 29 29 30 30 31 31 31 31 31 30 30 30 30 30 31 32 32 33 33 33 33 33 34 34 34 34 35 34 34 33 33 33
19 20 22 24 25 26 26 25 25 26 27 27 28 29 29 30 30 31 31 30 29 29 29 30 30 30 31 32 32 32 32 32 32 33 33 33 33 34 33 33 32 32 32 32
17 18 19 20 22 23 23 23 24 25 26 27 27 28 29 29 29 29 29 29 29 29 29 30 30 31 31 31 32 32 32 32 32 33 33 33 33 33 33 32 32 33 32 33
16 16 16 17 18 20 21 21 22 23 24 25 26 27 27 28 28 27 27 28 28 29 30 30 30 30 31 31 32 32 32 32 31 31 32 32 32 31 31 31 32 32 33 33
14 14 15 15 16 17 18 18 19 20 22 23 24 24 25 26 27 28 28 28 28 28 29 29 30 31 31 31 31 30 30 30 30 30 31 31 30 30 30 31 31 31 31 32
13 13 13 14 14 14 15 16 17 18 19 20 21 22 24 25 25 26 26 27 28 29 29 29 29 30 30 30 30 30 29 29 30 31 31 31 30 30 30 30 30 30 30 30
11 11 11 12 13 13 14 14 15 16 17 18 20 21 22 22 22 23 23 24 25 27 28 28 29 29 28 28 28 28 29 29 30 30 30 30 30 30 31 31 31 30 30 30
10 10 10 11 12 13 13 13 14 15 16 17 17 18 19 20 20 20 21 22 24 25 26 26 26 27 27 26 26 26 27 27 28 29 29 29 30 30 30 30 30 30 30 30

GEFSNGP_500_meanwind_276.txt.gz
Wind_Speed
34 31 28 28 28 28 29 28 28 27 26 26 23 24 23 22 22 21 22 21 22 21 20 20 20 20 20 20 19 19 19 18 18 18 18 17 17 17 16 16 16 15 16 16
37 34 31 31 30 28 29 29 29 28 27 27 27 27 26 25 24 23 23 23 23 23 23 23 22 21 21 21 21 21 21 20 20 20 20 19 20 19 18 18 18 18 18 18
37 36 34 35 33 31 30 30 30 30 30 28 30 32 30 29 27 26 25 26 26 25 24 24 24 23 23 24 24 23 23 22 22 22 22 21 21 21 21 21 21 20 20 20
36 35 38 37 33 32 31 31 31 31 31 31 31 31 31 30 29 27 27 28 28 28 27 26 26 26 25 26 26 25 25 24 24 23 23 23 23 23 23 23 23 23 23 22
37 37 38 37 34 33 32 33 34 33 32 33 34 33 33 30 30 29 28 29 29 30 29 29 28 28 28 28 28 27 26 26 26 26 25 26 26 25 26 26 25 25 25 25
39 38 38 36 35 33 33 36 37 37 36 36 36 36 36 34 33 33 31 31 31 32 32 31 31 30 30 30 30 29 28 27 28 29 29 28 28 28 28 28 28 28 27 26
40 40 39 36 35 35 37 39 38 37 38 39 39 39 39 38 37 36 35 34 34 34 34 34 33 32 31 31 31 30 30 30 30 31 31 31 30 30 29 29 29 29 29 28
41 40 40 39 38 38 39 39 39 38 39 40 40 40 41 41 40 38 37 37 36 36 35 35 35 34 33 32 32 31 31 31 31 31 31 31 31 31 31 31 31 31 31 30
39 40 40 41 42 41 41 40 40 40 41 41 41 41 42 41 40 39 39 38 38 37 37 36 36 35 34 33 33 33 32 32 32 32 32 32 32 32 32 32 32 32 32 31
41 41 41 41 41 43 43 42 42 41 42 42 41 41 41 41 40 39 38 38 38 38 37 36 36 36 35 34 34 34 34 33 33 33 33 33 33 33 33 32 33 33 33 33
41 41 43 44 44 44 45 45 44 43 41 40 40 39 39 39 39 39 39 39 39 38 37 37 38 38 37 36 35 34 34 34 34 34 34 34 34 33 33 34 34 33 33 33
42 42 44 44 44 43 44 44 44 43 42 40 40 39 39 39 39 39 39 39 40 40 39 38 39 38 38 37 36 35 35 35 35 35 35 35 34 34 33 33 33 33 33 33
40 41 44 44 42 42 43 43 42 42 41 41 40 39 40 40 40 39 39 38 38 39 39 38 37 37 37 37 37 36 35 35 35 35 35 34 35 35 34 34 34 34 34 34
38 38 40 41 41 41 41 41 41 41 42 42 41 40 41 41 40 39 39 38 38 38 37 37 37 37 37 37 37 36 35 35 35 35 34 35 34 34 34 34 34 34 34 33
36 38 38 38 39 39 40 40 41 40 41 40 39 39 39 39 39 38 38 38 38 37 37 37 37 37 37 36 36 35 35 35 35 35 35 35 34 34 34 34 35 34 33 33
35 36 37 38 38 38 39 38 39 39 39 38 39 39 38 38 38 37 37 37 38 37 37 37 37 37 37 36 36 36 36 35 36 36 36 35 34 34 34 34 34 34 33 34
33 33 34 35 36 35 37 38 38 38 38 38 39 39 39 38 37 36 36 36 36 37 37 38 38 37 36 36 36 36 35 35 36 36 35 35 34 35 35 35 34 34 34 34
29 30 31 32 33 34 35 36 37 37 38 38 39 39 38 38 37 37 37 37 36 36 37 37 37 36 36 35 35 36 35 35 35 35 34 34 35 35 35 36 36 35 33 33
27 28 29 29 30 30 32 33 34 35 36 35 35 36 36 36 36 35 35 35 35 35 35 35 35 36 36 35 35 34 34 34 34 34 34 34 34 34 34 34 33 33 33 33
23 24 26 27 28 29 29 30 31 32 32 32 32 33 34 34 34 34 33 34 34 34 34 34 33 33 34 34 34 33 33 33 34 34 35 35 34 34 34 33 32 33 34 34
23 24 25 25 26 26 26 27 28 29 30 31 31 32 32 32 32 32 32 32 31 31 31 31 32 32 32 33 33 33 34 34 34 34 34 34 34 34 34 34 34 35 36 35
20 21 22 22 23 24 24 25 26 27 27 28 28 29 29 29 29 30 31 31 31 31 30 31 31 31 31 32 31 32 32 33 33 33 33 33 33 34 34 34 34 35 36 36
18 19 19 20 21 21 21 22 23 24 25 26 27 27 27 27 27 28 28 29 29 30 30 30 30 30 31 31 32 32 32 33 33 33 32 33 33 34 34 33 33 33 35 35
14 15 15 16 17 18 19 19 20 21 22 23 24 24 25 25 26 26 26 27 27 28 29 29 29 29 30 30 31 32 32 33 33 33 33 33 34 34 34 34 34 35 35 35
11 11 12 13 15 16 16 17 17 18 19 20 21 20 21 23 24 25 26 26 27 27 28 28 28 28 29 29 31 32 32 31 31 32 33 33 34 34 34 34 34 33 34 34
9 9 9 11 12 14 15 16 16 17 19 19 19 19 20 21 22 22 23 24 25 26 26 27 28 29 29 29 30 31 31 31 32 33 34 34 34 34 34 34 34 33 34 34
8 9 9 9 10 12 13 14 14 14 15 16 17 18 19 19 20 20 21 22 22 23 25 25 26 27 28 29 30 31 31 31 32 32 32 32 33 33 33 33 33 33 33 34

GEFSNGP_500_meanwind_282.txt.gz
Wind_Speed
35 35 35 34 33 31 30 31 32 30 28 26 24 23 21 20 19 18 16 17 16 16 15 16 16 15 15 15 15 16 16 16 17 16 16 16 16 16 16 16 15 15 15 16
38 36 37 37 35 34 33 33 33 32 29 28 27 26 24 23 22 21 19 19 18 18 18 18 17 17 17 17 18 18 18 19 19 19 19 19 18 18 18 18 18 18 17 18
39 38 38 38 36 36 36 35 35 34 32 30 29 29 28 27 26 24 23 22 21 21 21 20 20 20 20 19 20 20 20 21 21 21 21 20 20 20 20 19 20 20 20 20
40 39 41 39 37 36 36 36 36 35 34 32 30 29 30 29 28 27 26 24 24 24 24 23 23 23 22 22 22 22 23 23 23 23 23 23 22 22 22 22 22 22 22 22
41 41 40 39 38 37 37 38 38 36 35 34 32 31 30 29 28 27 27 26 26 27 26 26 26 25 25 25 25 25 26 25 25 25 25 25 25 25 25 25 24 24 24 24
42 42 42 40 38 38 38 39 38 38 37 37 36 34 33 31 30 30 30 29 29 29 29 29 29 28 28 28 28 29 29 29 28 28 27 27 27 27 26 26 26 25 25 25
42 43 44 41 40 40 41 41 38 38 38 38 38 37 35 34 33 32 32 31 31 31 31 31 31 31 31 31 31 32 32 32 31 30 29 29 28 28 27 27 27 26 27 27
42 44 45 43 42 42 42 41 40 39 39 39 39 39 37 36 35 35 35 34 34 33 33 33 34 34 33 33 33 33 33 33 33 32 31 30 30 29 28 28 27 27 27 27
42 43 43 43 43 43 43 43 42 41 40 41 40 40 40 39 39 39 38 38 37 36 35 35 35 35 34 34 34 34 34 35 34 33 31 30 30 30 30 29 29 28 28 28
41 41 41 42 42 42 42 43 43 43 42 42 41 40 41 41 41 40 40 39 39 38 36 36 36 36 36 35 35 35 36 36 35 34 32 31 31 31 30 30 30 29 29 29
41 41 41 41 42 43 43 42 42 43 44 43 42 42 42 42 41 41 40 40 39 38 37 36 37 38 38 38 38 37 36 36 36 36 35 33 32 32 32 31 30 29 28 28
41 41 42 42 42 43 43 43 43 43 44 44 45 44 43 43 42 42 41 41 40 39 38 37 38 38 38 38 37 36 36 36 36 37 36 35 34 33 33 32 31 30 30 29
40 41 42 41 42 42 42 42 42 42 43 44 44 45 44 44 43 42 42 42 40 40 39 38 38 38 38 38 37 35 35 35 36 35 35 35 34 33 32 32 32 31 31 30
37 39 40 40 41 41 41 41 41 42 42 42 42 42 42 42 42 41 41 41 40 40 39 38 38 38 38 37 37 36 35 35 35 34 35 34 33 33 32 33 33 32 32 31
35 38 39 38 39 40 39 39 41 41 40 40 40 40 41 41 41 40 40 39 39 38 38 38 38 38 38 38 37 37 36 36 35 35 35 34 34 33 33 33 32 32 32 31
33 34 34 34 35 38 39 39 38 38 37 38 40 40 39 40 40 40 39 39 38 37 37 37 37 38 38 38 37 37 37 37 36 35 35 35 35 34 33 33 33 32 32 32
31 32 33 32 33 35 35 37 36 35 35 36 37 38 38 38 38 38 38 38 37 37 37 36 36 37 37 37 37 36 37 37 37 36 36 35 35 34 34 33 33 33 33 33
29 29 30 31 31 31 31 32 32 33 33 33 34 36 37 37 38 37 37 37 37 36 36 36 36 35 35 35 35 35 35 36 36 36 36 36 36 35 35 35 34 34 34 34
27 27 26 27 28 28 28 29 30 30 31 32 33 33 35 35 36 36 36 36 35 35 35 36 35 34 34 34 34 34 34 35 35 36 36 36 36 36 36 35 35 35 35 35
25 26 25 25 26 26 26 27 27 28 29 30 31 32 32 33 34 35 35 34 34 34 35 35 34 34 33 33 33 34 34 34 34 34 35 35 35 35 35 36 35 35 35 34
21 22 23 23 24 24 25 24 24 25 26 27 28 29 30 30 31 32 32 32 32 33 33 33 33 33 32 33 33 33 33 33 33 33 34 35 35 35 35 34 34 34 34 34
17 18 19 20 21 22 23 23 24 23 23 24 25 25 26 27 29 30 30 31 30 30 30 30 30 31 32 32 33 33 33 33 33 33 34 34 35 35 35 34 33 33 33 32
14 16 16 17 17 18 19 20 21 21 22 23 23 22 23 24 27 28 28 28 28 28 28 29 29 29 30 31 31 32 32 32 33 33 33 34 34 34 33 33 32 32 33 33
13 14 15 15 15 15 17 18 19 19 20 20 21 21 21 22 23 24 25 26 28 28 28 28 28 28 29 29 30 30 31 31 31 32 32 32 32 32 32 31 31 31 32 32
12 13 12 12 13 13 14 16 17 18 18 19 19 19 20 21 21 22 24 25 25 26 26 25 26 26 26 27 28 28 29 30 30 30 31 31 31 30 30 30 30 30 31 31
10 10 10 10 11 11 12 13 14 15 16 18 18 18 19 19 20 20 21 22 23 23 23 24 24 25 25 25 26 27 27 27 28 29 30 30 29 28 28 29 29 30 30 30
8 8 8 9 9 9 10 11 12 13 14 15 15 16 17 18 18 18 18 19 19 19 20 21 22 23 23 24 24 24 25 26 26 27 27 27 28 28 29 29 30 30 30 30